Location: Caualo
(45.5667°N, 10.8667°E)
Time: 23:49:42
(UTC+00:00)

In-Cosmos 22 Rocket - Visible Passes

Search period start: 01 October 2020 00:00
Search period end: 11 October 2020 00:00
Orbit: 790 x 888 km, 81.2° (Epoch: 01 October)

Date Brightness Start Highest point End Pass type
(mag) Time Alt. Az. Time Alt. Az. Time Alt. Az.
01 Oct 6.3 19:40:54 10° NNE 19:41:53 13° NNE 19:41:53 13° NNE visible
01 Oct 6.7 21:22:42 10° NNW 21:23:39 15° NNW 21:23:39 15° NNW visible
02 Oct 6.3 19:25:44 10° NNE 19:26:35 13° NNE 19:26:35 13° NNE visible
02 Oct 6.6 21:07:13 10° NNW 21:08:21 17° NNW 21:08:21 17° NNW visible
03 Oct 6.3 19:10:37 10° NNE 19:11:18 12° NNE 19:11:18 12° NNE visible
03 Oct 6.4 20:51:45 10° NNW 20:53:03 18° NNW 20:53:03 18° NNW visible
04 Oct 6.3 18:55:36 10° NNE 18:56:01 11° NE 18:56:01 11° NE visible
04 Oct 6.3 20:36:17 10° N 20:37:47 19° N 20:37:47 19° N visible
05 Oct 6.1 20:20:51 10° N 20:22:31 21° N 20:22:31 21° N visible
06 Oct 6.0 20:05:26 10° N 20:07:17 22° N 20:07:17 22° N visible
07 Oct 5.9 19:50:01 10° N 19:52:03 23° N 19:52:03 23° N visible
07 Oct 7.1 21:33:49 10° NW 21:33:49 10° NW 21:33:49 10° NW visible
08 Oct 5.7 19:34:37 10° N 19:36:50 24° N 19:36:50 24° N visible
08 Oct 6.9 21:18:06 10° NW 21:18:37 12° NW 21:18:37 12° NW visible
09 Oct 5.6 19:19:15 10° N 19:21:39 25° NNE 19:21:39 25° NNE visible
09 Oct 6.8 21:02:25 10° NW 21:03:25 14° NW 21:03:25 14° NW visible
10 Oct 5.5 19:03:53 10° N 19:06:29 25° NNE 19:06:29 25° NNE visible
10 Oct 6.6 20:46:49 10° NNW 20:48:15 17° NW 20:48:15 17° NW visible
